Find Feng Yun 3B

NORAD ID: 37214 Int'l Des: 2010-059 Owner: NSMC Country: CN operational
LEOCIRCULARRETROGRADESSO

リアルタイム位置

3D地球を読み込み中...

Feng Yun 3Bについて

説明を読み込み中...

次回通過

Passes for default location (London). Set your location on the main map for personalized predictions.

高度履歴

Loading altitude history...

軌道要素

1 37214U 10059A 26104.53001399 .00000031 00000-0 39235-4 0 9995
2 37214 98.9698 150.2553 0022317 10.2303 126.1798 14.14827091798424
Epoch: Apr 14, 2026 • Age: 3 hours

現在のステータス

高度 858.9 km
速度 7.42 km/s
衛星直下点 31.20°N, 109.55°W
打ち上げ日 Nov 4, 2010
運用期間 15.4 years
タイプ other

技術仕様

分類 Payload
質量 2200.00 kg
乾燥質量 2130.00 kg
総質量 2200.00 kg
長さ 4.40 m
直径 2.00 m
スパン 10.00 m
形状 Box + 2 Pan
製造者 SISE
バスタイプ FY-3
フェーズステータス In Orbit
所有者/国 NSMC/CN

Most Searched